This is the latest recevied weather packets stored in our database for station/object KF6TYS-13. If no packets are shown the sender has not sent any weather packets the latest 10 day(s).
| Time | Temp. | Humidity | Pressure | Rain* | Wind** | Luminosity | Snow |
|---|---|---|---|---|---|---|---|
| 1777509037 | 56.11° C | 67% | 1014.9 hPa | 0 mm | - | - | - |
| 1777507236 | 56.67° C | 59% | 1014.7 hPa | 0 mm | - | - | - |
| 1777505436 | 57.22° C | 55% | 1014.8 hPa | 0 mm | - | - | - |
| 1777503635 | 57.22° C | 54% | 1015.1 hPa | 0 mm | - | - | - |
| 1777501833 | 57.78° C | 51% | 1015.4 hPa | 0 mm | - | - | - |
| 1777500032 | 57.78° C | 50% | 1015.5 hPa | 0 mm | - | - | - |
| 1777498233 | 57.78° C | 49% | 1015.6 hPa | 0 mm | - | - | - |
| 1777496431 | 57.78° C | 50% | 1015.8 hPa | 0 mm | - | - | - |
| 1777494630 | 57.78° C | 49% | 1016 hPa | 0 mm | - | - | - |
| 1777492828 | 58.33° C | 54% | 1016.3 hPa | 0 mm | - | - | - |
| 1777491027 | 57.78° C | 60% | 1016.7 hPa | 0 mm | - | - | - |
| 1777489227 | 57.78° C | 60% | 1017 hPa | 0 mm | - | - | - |
| 1777487425 | 57.22° C | 62% | 1017.1 hPa | 0 mm | - | - | - |
| 1777485625 | 57.22° C | 70% | 1017.4 hPa | 0 mm | - | - | - |
| 1777483824 | 56.67° C | 78% | 1017.5 hPa | 0 mm | - | - | - |
| 1777482023 | 56.11° C | 86% | 1017.8 hPa | 0 mm | - | - | - |
| 1777480222 | 56.11° C | 100% | 1018 hPa | 0 mm | - | - | - |
| 1777478422 | 55.56° C | 100% | 1018.4 hPa | 0 mm | - | - | - |
| 1777476621 | 55° C | 100% | 1018.4 hPa | 0 mm | - | - | - |
| 1777474819 | 55° C | 100% | 1018.5 hPa | 0 mm | - | - | - |
| 1777473018 | 55° C | 100% | 1018.4 hPa | 0 mm | - | - | - |
| 1777471217 | 55° C | 100% | 1018.2 hPa | 0 mm | - | - | - |
| 1777469417 | 55° C | 100% | 1018.2 hPa | 0 mm | - | - | - |
| 1777467617 | 55° C | 100% | 1018.2 hPa | 0 mm | - | - | - |
| 1777465814 | 53.89° C | 100% | 1018 hPa | 0 mm | - | - | - |
* Rain latest hour (hover to see other rain measurements)
** Current wind speed in m/s (hover to see current wind gust speed)